Wind_Speed
45 43 42 39 40 41 40 39 36 34 33 31 31 27 23 21 18 17 16 15 14 14 13 13 12 13 13 13 13 13 13 14 15 16 17 18 20 21 22 22 21 21 21
49 48 45 44 42 42 43 42 39 38 37 34 32 33 29 26 23 20 19 17 17 16 15 14 14 15 15 15 15 14 16 18 19 21 22 23 23 24 23 21 20 21 20
54 54 51 48 46 44 44 45 43 41 39 38 37 36 34 31 29 25 23 22 20 19 19 18 18 18 18 18 18 17 19 20 20 21 22 22 23 22 21 20 19 18 20
60 58 56 54 51 47 46 47 47 45 44 42 41 37 38 35 31 29 26 25 25 23 22 21 21 21 21 20 20 21 21 20 21 21 22 21 20 20 19 18 19 20 21
61 61 62 59 58 54 50 49 49 49 48 46 45 43 41 40 36 35 30 28 27 25 24 23 22 22 23 23 24 24 23 23 23 22 22 20 18 19 19 20 20 22 24
58 61 65 63 63 60 57 54 53 53 53 51 49 48 45 44 42 38 34 31 31 29 26 24 23 24 24 24 25 26 26 26 25 25 24 22 20 23 24 23 23 24 28
59 63 62 67 65 64 62 60 58 56 56 56 54 52 49 48 46 43 40 36 32 31 28 28 25 24 24 24 26 27 28 29 28 27 25 24 24 27 27 26 28 26 25
57 59 63 69 66 68 66 64 61 60 58 59 57 55 53 50 48 47 43 40 35 34 33 30 28 27 25 27 28 29 30 31 31 29 28 28 29 28 27 27 28 28 27
62 61 62 65 71 70 72 69 64 62 61 62 61 59 55 53 51 49 47 43 39 37 37 34 32 30 30 28 29 30 31 33 33 32 30 29 29 30 29 30 29 30 31
62 64 65 65 69 72 73 72 70 67 66 65 64 63 60 56 53 52 51 46 43 41 41 37 35 33 33 32 31 32 31 30 32 31 30 29 30 31 31 31 31 32 32
60 66 69 71 73 70 70 74 74 73 69 67 66 64 61 59 59 57 53 49 47 43 43 41 37 36 36 34 33 33 28 29 31 30 29 29 30 31 32 32 33 33 33
61 65 68 71 76 77 75 71 74 74 70 70 70 69 65 63 61 60 56 51 50 47 46 43 39 37 38 38 37 35 33 32 31 30 29 29 31 33 32 34 34 34 34
64 69 69 72 76 80 77 70 71 75 76 71 71 71 68 66 64 64 59 54 52 49 48 43 42 41 41 39 38 38 37 37 35 32 30 29 30 31 33 34 35 37 35
65 71 71 72 79 81 83 73 69 75 79 80 76 72 69 69 67 65 59 53 52 52 48 47 45 44 41 38 38 40 39 38 35 34 31 31 32 33 34 36 36 38 37
68 77 73 76 82 85 84 76 70 73 79 83 83 78 72 70 68 64 59 55 55 57 54 48 47 45 43 41 39 39 37 37 33 33 32 32 34 36 37 39 40 40 38
72 77 77 78 84 87 86 74 64 71 58 81 87 82 76 75 69 66 60 57 57 57 55 51 49 48 47 43 41 39 38 37 34 33 33 35 36 39 40 40 41 42 42
70 77 76 78 85 88 89 80 70 74 68 73 84 86 82 78 73 69 64 60 61 61 59 56 51 50 46 46 42 39 38 38 36 36 37 39 38 39 39 40 44 45 46
65 67 64 72 77 90 92 102 88 81 69 71 76 89 84 79 75 72 67 63 63 61 60 56 52 50 48 46 43 40 39 38 39 38 39 36 37 41 45 45 47 47 48
52 54 59 67 72 85 98 98 87 90 80 68 74 81 83 79 76 72 69 64 63 62 59 55 52 49 47 47 45 42 40 40 38 37 38 36 39 43 49 51 54 53 52
44 46 55 66 75 86 104 100 90 93 90 89 78 78 81 84 79 71 68 65 63 60 57 54 52 51 49 49 47 46 45 40 40 41 40 38 42 46 51 54 56 57 56
38 41 50 60 75 92 100 106 90 80 82 87 82 74 64 71 77 74 69 66 63 60 56 54 50 50 50 49 46 46 43 43 44 42 41 40 43 49 52 55 58 59 61
33 38 46 58 74 93 102 106 99 85 78 83 80 72 67 65 71 75 69 64 62 59 55 53 52 52 51 50 48 46 44 43 43 45 47 48 45 47 50 54 57 62 65
29 35 47 58 82 94 107 108 107 96 89 87 80 76 70 71 72 71 70 68 64 61 58 56 54 53 52 50 49 47 46 44 49 50 53 53 54 51 51 55 62 68 67
28 38 49 67 93 98 110 110 94 86 87 79 84 78 69 67 62 67 66 67 65 61 59 60 58 55 55 56 54 51 48 46 46 53 54 57 57 60 60 62 65 67 68
29 42 57 83 97 102 110 103 88 86 83 78 77 67 67 70 74 71 69 67 66 62 59 58 59 59 59 61 58 55 49 49 50 51 57 56 56 59 63 64 68 66 70
31 47 68 94 98 100 112 110 98 93 85 83 79 72 68 71 75 74 72 73 74 66 61 61 59 58 58 58 59 53 51 49 52 56 56 60 63 66 68 69 70 71 71
Wind_Direction
238 235 236 235 235 234 234 239 240 239 237 241 233 230 231 232 232 241 238 229 225 226 228 230 230 234 241 248 257 264 268 272 273 274 277 278 275 276 277 279 280 282 282
236 237 237 238 236 235 234 234 236 240 238 239 239 235 236 236 235 241 241 238 233 232 235 236 243 246 250 255 262 270 276 279 280 280 280 282 283 284 287 289 294 295 300
238 238 235 233 235 237 233 232 232 235 240 239 242 241 244 239 236 240 241 243 244 241 241 242 246 253 258 266 273 277 280 283 285 285 286 283 281 280 281 284 289 294 299
236 239 238 237 234 234 234 232 230 233 236 239 242 243 241 244 238 241 240 242 245 244 244 245 249 256 262 266 269 275 278 285 294 293 291 285 278 275 279 282 286 291 299
241 239 240 238 238 235 234 233 231 230 233 235 240 242 241 243 246 243 240 242 244 247 247 249 251 256 262 266 268 272 280 285 292 297 293 281 273 273 271 280 287 295 300
243 241 242 240 239 238 235 233 233 230 230 232 235 242 242 242 245 245 245 243 245 245 249 249 253 255 260 265 269 273 277 282 291 296 291 279 271 273 274 281 286 296 303
242 242 241 242 239 237 236 233 232 232 230 231 235 239 242 241 247 248 248 244 244 246 248 249 251 257 261 266 271 275 276 281 285 289 285 271 266 270 278 279 286 294 305
245 239 238 241 239 238 237 235 232 233 232 232 232 235 240 242 243 248 249 250 246 245 247 249 253 255 258 266 273 276 279 280 281 283 280 268 265 268 278 282 287 297 309
250 246 241 239 238 236 237 236 234 232 232 232 232 234 236 240 243 246 249 249 250 249 249 254 255 257 260 269 272 277 280 281 281 281 279 269 265 269 277 281 290 302 309
250 245 241 241 238 235 234 236 235 234 231 232 232 233 234 238 238 244 248 250 251 246 252 255 260 262 265 269 273 280 276 278 276 278 278 271 266 270 276 285 293 301 306
249 245 242 236 240 237 233 233 233 233 234 233 232 232 233 235 237 241 246 250 250 250 251 259 265 266 271 273 275 280 278 277 276 276 275 270 266 271 278 286 294 298 301
249 245 240 237 233 234 232 229 231 232 231 234 232 230 230 232 236 237 242 247 249 249 251 256 261 258 270 276 279 285 285 285 282 276 272 269 267 270 278 285 290 293 298
252 247 238 236 232 227 229 225 228 228 229 231 232 232 232 233 234 238 241 242 246 247 250 253 258 257 266 273 276 280 283 283 283 277 272 271 274 276 280 285 289 292 297
252 249 240 235 231 224 222 223 222 227 228 229 231 231 232 232 234 237 238 240 243 245 248 255 257 258 266 271 272 272 277 278 279 277 276 276 277 280 283 286 288 293 296
251 249 243 235 229 221 216 219 216 222 227 228 230 231 230 231 233 235 237 237 241 247 251 255 256 259 264 267 268 272 272 276 277 275 277 279 279 282 284 288 291 291 292
253 249 243 233 228 221 210 208 224 218 228 233 228 229 230 230 231 234 236 237 241 245 250 253 257 260 264 264 266 268 269 272 275 278 280 279 281 283 286 289 290 290 294
254 250 245 237 228 217 208 193 205 215 208 228 226 228 228 230 231 233 235 235 240 244 246 252 254 259 262 263 265 266 265 270 273 274 279 280 283 283 287 288 287 289 292
258 253 244 235 227 216 206 201 202 205 213 223 226 229 228 229 230 232 234 235 239 244 247 251 252 258 261 264 266 263 264 268 274 280 282 283 280 284 288 288 287 288 291
261 246 236 228 221 213 203 203 199 199 205 217 218 223 225 228 229 230 233 234 238 243 247 249 252 255 257 262 265 266 266 266 272 275 280 278 280 286 287 287 288 290 293
261 243 229 222 214 207 202 199 196 202 209 220 223 225 224 229 230 230 231 235 238 242 246 249 251 255 257 259 262 263 267 272 276 274 274 276 279 284 285 287 288 293 295
259 238 223 215 208 203 197 197 195 203 212 215 218 222 218 226 230 233 231 233 236 239 243 248 252 254 256 258 260 263 265 269 273 271 268 269 273 281 283 284 288 292 297
256 231 218 209 203 199 195 190 193 189 200 210 211 210 211 220 227 230 232 231 234 238 240 245 250 251 254 255 259 262 266 268 265 266 269 269 269 273 280 283 282 287 292
249 223 209 200 198 195 193 190 197 197 207 211 211 216 216 223 226 231 232 233 233 236 240 244 247 250 251 255 258 263 265 264 267 270 271 271 271 267 269 274 279 285 292
238 216 206 192 191 195 192 190 197 197 200 204 214 215 217 219 228 233 233 233 234 236 241 244 249 250 254 256 256 261 265 263 269 269 270 274 274 270 269 274 276 285 296
228 206 196 189 192 193 189 185 187 189 192 200 206 204 213 216 221 228 233 235 237 238 241 245 248 252 254 256 258 262 260 264 266 270 270 271 272 271 271 274 280 291 300
225 206 193 190 192 190 190 192 195 196 201 204 211 218 217 221 222 227 230 234 237 240 243 247 251 256 255 260 260 261 260 262 269 263 268 269 269 273 275 280 284 294 297
Height
10811 10816 10819 10822 10826 10830 10833 10837 10840 10843 10846 10849 10851 10853 10854 10856 10858 10860 10862 10863 10864 10865 10867 10869 10870 10871 10872 10873 10874 10875 10876 10876 10877 10878 10879 10880 10880 10880 10880 10880 10880 10880 10879
10804 10807 10811 10815 10819 10822 10826 10830 10834 10838 10841 10844 10847 10849 10851 10852 10854 10856 10858 10860 10861 10863 10864 10866 10867 10869 10870 10871 10872 10872 10873 10874 10874 10875 10875 10875 10875 10875 10875 10875 10875 10875 10875
10795 10796 10800 10805 10811 10815 10819 10823 10826 10831 10835 10839 10842 10844 10846 10849 10851 10853 10854 10857 10858 10860 10861 10862 10864 10865 10867 10868 10869 10870 10870 10871 10871 10871 10871 10871 10871 10871 10872 10872 10871 10871 10870
10785 10788 10794 10798 10802 10807 10811 10815 10819 10824 10828 10832 10836 10839 10842 10843 10847 10849 10851 10853 10855 10857 10858 10859 10861 10862 10863 10864 10865 10866 10866 10867 10867 10867 10867 10867 10867 10868 10868 10868 10868 10868 10867
10778 10781 10783 10788 10793 10798 10803 10807 10811 10816 10820 10825 10829 10833 10836 10839 10841 10845 10847 10849 10851 10853 10854 10855 10857 10858 10859 10860 10861 10862 10863 10863 10864 10864 10864 10864 10864 10864 10864 10865 10865 10864 10863
10767 10771 10774 10780 10784 10789 10794 10799 10802 10807 10812 10817 10822 10825 10830 10833 10836 10840 10843 10845 10847 10849 10850 10851 10853 10854 10856 10856 10857 10858 10859 10859 10859 10859 10860 10860 10861 10861 10861 10861 10861 10860 10859
10754 10759 10764 10767 10774 10779 10784 10789 10793 10799 10804 10809 10814 10818 10823 10827 10830 10834 10837 10840 10843 10845 10846 10847 10848 10850 10851 10852 10853 10854 10854 10854 10855 10855 10856 10857 10857 10856 10857 10857 10856 10856 10855
10740 10746 10750 10752 10761 10767 10772 10778 10784 10790 10795 10800 10805 10809 10814 10820 10824 10827 10831 10834 10838 10839 10841 10843 10844 10846 10848 10849 10849 10850 10850 10850 10850 10851 10851 10851 10852 10852 10852 10851 10851 10851 10850
10723 10731 10739 10740 10744 10753 10760 10768 10775 10780 10786 10790 10795 10801 10806 10812 10817 10821 10824 10828 10831 10833 10835 10837 10839 10842 10843 10845 10845 10846 10845 10845 10844 10844 10845 10845 10846 10846 10847 10846 10847 10846 10845
10709 10713 10721 10725 10730 10737 10746 10755 10764 10769 10774 10780 10785 10791 10797 10804 10809 10813 10817 10821 10824 10827 10829 10831 10833 10836 10838 10840 10840 10840 10840 10839 10839 10839 10839 10839 10840 10841 10841 10841 10842 10841 10840
10691 10692 10699 10707 10713 10722 10732 10740 10749 10756 10764 10769 10774 10781 10788 10794 10800 10805 10809 10813 10817 10820 10822 10824 10827 10829 10831 10833 10834 10833 10835 10833 10833 10833 10833 10834 10835 10835 10836 10836 10836 10836 10835
10670 10672 10678 10685 10693 10704 10714 10724 10735 10744 10751 10757 10762 10769 10778 10784 10790 10796 10801 10805 10809 10813 10815 10818 10820 10822 10824 10826 10826 10826 10827 10827 10827 10827 10828 10829 10829 10830 10831 10830 10830 10829 10828
10647 10647 10656 10663 10671 10683 10696 10710 10721 10731 10738 10744 10749 10758 10767 10773 10781 10785 10793 10797 10800 10804 10808 10811 10813 10816 10818 10820 10820 10820 10821 10820 10821 10821 10822 10823 10824 10824 10824 10824 10823 10822 10821
10623 10621 10631 10639 10648 10661 10678 10693 10705 10713 10723 10731 10736 10744 10756 10763 10769 10775 10783 10789 10792 10797 10800 10804 10807 10809 10811 10813 10814 10815 10816 10815 10815 10815 10816 10816 10817 10817 10818 10817 10816 10816 10815
10597 10592 10606 10615 10623 10639 10658 10680 10687 10693 10704 10715 10723 10732 10744 10750 10759 10767 10774 10781 10784 10789 10792 10796 10798 10801 10804 10806 10807 10808 10809 10808 10809 10809 10810 10810 10810 10810 10810 10810 10809 10808 10808
10568 10568 10577 10588 10597 10618 10637 10664 10668 10685 10691 10698 10708 10721 10732 10737 10750 10758 10766 10773 10776 10781 10783 10788 10790 10793 10796 10798 10799 10801 10802 10802 10803 10803 10803 10803 10802 10802 10802 10802 10801 10800 10800
10541 10541 10550 10561 10575 10595 10616 10636 10646 10668 10676 10674 10695 10708 10718 10725 10740 10748 10756 10763 10767 10772 10776 10780 10783 10785 10787 10789 10791 10792 10794 10794 10795 10795 10795 10795 10795 10794 10794 10794 10793 10792 10791
10516 10517 10526 10534 10553 10574 10596 10613 10631 10655 10665 10670 10682 10694 10706 10714 10727 10737 10744 10753 10757 10761 10767 10771 10774 10777 10779 10780 10782 10784 10786 10786 10787 10788 10788 10788 10787 10786 10784 10785 10784 10783 10783
10494 10496 10503 10512 10528 10552 10575 10590 10616 10635 10646 10650 10665 10678 10692 10702 10714 10724 10732 10741 10747 10752 10757 10761 10765 10768 10770 10772 10773 10775 10777 10778 10778 10779 10780 10780 10780 10779 10776 10774 10773 10773 10774
10476 10478 10483 10493 10507 10530 10549 10576 10600 10615 10630 10636 10655 10669 10679 10692 10702 10713 10720 10731 10737 10743 10747 10751 10755 10758 10761 10763 10764 10765 10768 10769 10770 10770 10771 10771 10771 10769 10766 10764 10761 10761 10762
10459 10462 10468 10478 10495 10514 10538 10559 10584 10600 10615 10633 10648 10659 10671 10679 10692 10703 10710 10718 10726 10731 10737 10741 10745 10749 10751 10753 10755 10756 10758 10760 10761 10761 10761 10760 10761 10759 10757 10753 10751 10751 10750
10447 10451 10457 10468 10487 10503 10525 10545 10565 10579 10599 10619 10634 10646 10654 10664 10678 10690 10698 10707 10714 10720 10726 10732 10735 10737 10741 10742 10745 10747 10749 10750 10750 10751 10750 10750 10750 10749 10747 10745 10742 10740 10739
10439 10444 10451 10462 10479 10500 10510 10529 10551 10567 10589 10604 10619 10636 10648 10658 10668 10677 10686 10696 10702 10709 10715 10719 10724 10727 10729 10733 10735 10737 10736 10738 10739 10740 10740 10739 10738 10737 10736 10734 10731 10729 10729
10432 10435 10444 10452 10473 10487 10504 10527 10548 10565 10581 10597 10612 10626 10639 10647 10657 10667 10676 10684 10692 10697 10703 10707 10713 10716 10720 10722 10724 10723 10726 10726 10728 10728 10727 10727 10726 10725 10723 10721 10720 10719 10719
10426 10430 10440 10454 10467 10484 10504 10522 10540 10556 10573 10590 10604 10617 10629 10638 10647 10655 10666 10674 10681 10685 10690 10696 10701 10704 10707 10710 10712 10713 10716 10714 10716 10716 10715 10714 10713 10712 10710 10708 10708 10708 10708
10422 10429 10435 10450 10467 10488 10505 10516 10534 10553 10568 10584 10595 10607 10619 10628 10637 10645 10653 10661 10667 10673 10679 10684 10689 10692 10694 10698 10700 10701 10701 10701 10702 10703 10702 10701 10700 10698 10696 10696 10696 10696 10693